Погода в Бабино

Россия / Удмуртская Республика     56°39′16″N   53°27′51″E
темп.,
°C
ветер,
м/с
пор.,
м/с
влажн.,
%
обл.,
%
осадки,
мм/ч
давл.,
гПа
погр.,
м
19 апреля, пн
пн1901:000всв6135537 0.0 1030518
04:00−1всв6125562 0.0 1032504
07:00−1всв711465 0.0 1032699
10:00+3в810280 0.0 10331321
13:00+5в79240 0.0 10331612
16:00+6в68250 0.0 10321718
19:00+4всв48380 0.0 1032215
22:000в39500 0.0 1033161
20 апреля, вт
вт2001:00−1в36520 0.0 1034109
04:00−1в23530 0.0 103548
07:00+1в24465 0.0 1035160
10:00+5вюв33315 0.0 10351023
13:00+7юв23270 0.0 10341394
16:00+9юв11260 0.0 10331380
19:00+7св12380 0.0 103212
22:00+3вюв22490 0.0 103222
21 апреля, ср
ср2101:00+2вюв22510 0.0 103211
04:00+1юв22535 0.0 103220
07:00+3юв375185 0.0 1032191
10:00+8юв6838100 0.0 1030776
13:00+11ююв7934100 0.0 10291307
16:00+11ююв71034100 0.0 10281518
19:00+9ююв61242100 0.0 1027440
22:00+7ююв41151100 0.0 1027276
22 апреля, чт
чт2201:00+7ю51152100 0.0 1027441
04:00+4ю51276100 0.1 1028696
07:00+4ююв61386100 0.3 1027791
10:00+4ююв61296100 0.6 1027830
13:00+4ю71196100 0.1 1028773
16:00+5ю61283100 0.2 1028677
19:00+5ю61183100 0.0 1029532
22:00+4ююв5991100 0.0 1028407
23 апреля, пт
пт2301:00+3ю4896100 0.0 1028416
04:00+3ююв4797100 0.0 1028368
07:00+3ююв3698100 0.0 1028325
10:00+3ю3697100 0.0 1029336
13:00+5ю3392100 0.0 1029369
16:00+6ююв338591 0.0 1028470
19:00+6юв458598 0.0 1028507
22:00+3в229478 0.0 102820